Weather History for Copper Harbor, MI

Change the Weather History Date:

Friday, December 27, 2013

  Actual Average Record
Temperature  
Mean Temperature 24 °F -  
Max Temperature 34 °F 26 °F 45 °F (2011)
Min Temperature 15 °F 16 °F 5 °F (1996)
Degree Days  
Heating Degree Days 40    
Moisture  
Dew Point 18 °F    
Average Humidity 81    
Maximum Humidity 85    
Minimum Humidity 75    
Precipitation  
Precipitation 0.03 in - - ()
Sea Level Pressure  
Sea Level Pressure 29.97 in    
Wind  
Wind Speed 8 mph (West)    
Max Wind Speed 20 mph    
Max Gust Speed 29 mph    
Averages and records for this station are not official NWS values.
T = Trace of Precipitation, MM = Missing Value Source: NWS Daily Summary

Daily Weather History Graph

Daily Weather History Graph

Search for Another Location

Airport:

Trip Planner

Search our weather history database for the weather conditions in past years. The results will help you decide how hot, cold, wet, or windy it might be!

Date:

Astronomy

Dec. 27, 2013 Rise Set
Actual Time 8:38 AM EST 5:06 PM EST
Civil Twilight 8:02 AM EST 5:42 PM EST
Nautical Twilight 7:23 AM EST 6:22 PM EST
Astronomical Twilight 6:46 AM EST 6:59 PM EST
Moon 2:55 AM EST (12/27) 1:29 PM EST (12/27)
Length of Visible Light 9h 40m
Length of Day
8h 28m
Waning Crescent, 28% of the Moon is Illuminated
Dec 27
Waning Crescent
Jan 1
New
Jan 7
First Quarter
Jan 15
Full
Jan 24
Last Quarter

Hourly Weather History & Observations

Time (EST) Temp. Windchill Dew Point Humidity Pressure Visibility Wind Dir Wind Speed Gust Speed Precip Events Conditions
12:51 AM 15.1 °F 9.4 °F 10.0 °F 80% 30.18 in - WSW 3.5 mph - N/A   Unknown
1:51 AM 15.1 °F 7.7 °F 10.9 °F 84% 30.17 in - WSW 4.6 mph - N/A   Unknown
2:51 AM 15.1 °F 9.4 °F 10.9 °F 84% 30.18 in - SW 3.5 mph - N/A   Unknown
3:51 AM 16.0 °F 7.4 °F 12.0 °F 84% 30.16 in - WSW 5.8 mph - N/A   Unknown
4:51 AM 15.1 °F 6.4 °F 10.9 °F 84% 30.15 in - Variable 5.8 mph - N/A   Unknown
5:51 AM 15.1 °F 3.3 °F 10.9 °F 84% 30.14 in - WSW 9.2 mph 17.3 mph N/A   Unknown
6:51 AM 15.1 °F 4.2 °F 10.9 °F 84% 30.14 in - WSW 8.1 mph - N/A   Unknown
7:51 AM 16.0 °F 2.9 °F 10.9 °F 81% 30.13 in - WSW 11.5 mph 17.3 mph N/A   Unknown
8:51 AM 16.0 °F 3.6 °F 10.9 °F 81% 30.12 in - WSW 10.4 mph - N/A   Unknown
9:51 AM 17.1 °F 1.5 °F 12.9 °F 84% 30.07 in - WSW 17.3 mph 28.8 mph N/A   Unknown
10:51 AM 18.0 °F 6.1 °F 12.9 °F 81% 30.05 in - SW 10.4 mph 20.7 mph 0.03 in   Unknown
11:51 AM 19.9 °F 9.3 °F 16.0 °F 85% 29.99 in - WSW 9.2 mph 19.6 mph N/A   Unknown
12:51 PM 23.0 °F 13.1 °F 19.0 °F 85% 29.93 in - WSW 9.2 mph 24.2 mph N/A   Unknown
1:51 PM 26.1 °F 15.0 °F 19.9 °F 78% 29.85 in - WSW 12.7 mph 19.6 mph N/A   Unknown
2:51 PM 27.0 °F 17.3 °F 21.9 °F 81% 29.80 in - WSW 10.4 mph 20.7 mph N/A   Unknown
3:51 PM 28.9 °F 20.4 °F 23.0 °F 78% 29.76 in - WSW 9.2 mph - N/A   Unknown
4:51 PM 30.0 °F 23.2 °F 23.0 °F 75% 29.78 in - WSW 6.9 mph - N/A   Unknown
5:51 PM 30.0 °F 25.2 °F 23.0 °F 75% 29.78 in - West 4.6 mph - N/A   Unknown
6:51 PM 34.0 °F 25.5 °F 28.0 °F 79% 29.80 in - NNW 11.5 mph 24.2 mph N/A   Unknown
7:51 PM 34.0 °F 23.0 °F 28.0 °F 79% 29.81 in - NNW 18.4 mph 28.8 mph N/A   Unknown
8:51 PM 34.0 °F 23.0 °F 28.0 °F 79% 29.82 in - North 18.4 mph - N/A   Unknown
9:51 PM 33.1 °F 21.9 °F 28.0 °F 82% 29.84 in - North 18.4 mph - N/A   Unknown
10:51 PM 33.1 °F 21.9 °F 27.0 °F 78% 29.85 in - North 18.4 mph - N/A   Unknown
11:51 PM 32.0 °F 20.1 °F 27.0 °F 82% 29.87 in - North 19.6 mph - N/A   Unknown